#timestamp,LO_Frequency,Hit 
1504717215.4,286047000.1,N
1504717235.2,286046999.9,N
1504717255.0,286046996.9,N
1504717255.9,286046996.9,N
1504717275.8,286046996.5,N
1504717295.6,286046997.7,N
1504717315.4,286046997.7,N
1504717335.3,286046995.5,N
1504717355.1,286046995.7,N
1504717356.0,286046995.7,N
1504717375.8,286046996.5,N
1504717395.7,286046999.1,N
1504717415.5,286047002.6,N
1504717435.3,286046998.3,N
1504717455.1,286046995.2,N
1504717475.9,286046996.3,N
1504717495.7,286046998.0,N
1504717515.5,286046997.3,N
1504717535.4,286046993.6,P
1504717555.2,286046997.6,N
1504717575.0,286046997.3,N
1504717575.9,286046997.3,N
1504717595.8,286046997.8,N
1504717615.6,286046999.1,N
1504717635.4,286047001.5,N
1504717655.3,286047004.1,N
1504717675.1,286046998.2,N
1504717695.8,286046997.3,N
1504717715.7,286046995.4,N
1504717735.5,286046997.0,N
1504717755.3,286047000.9,N
1504717775.2,286046999.8,N
1504717795.9,286047000.4,N
1504717815.7,286047001.6,N
1504717835.5,286047002.5,N
1504717855.4,286047001.6,N
1504717875.2,286047003.5,N
1504717895.0,286047005.0,N
1504717895.9,286047005.0,N
1504717915.8,286047003.5,N
1504717935.6,286047001.9,N
1504717955.4,286047003.0,N
1504717975.3,286047002.2,N
1504717995.1,286047003.1,N
1504718015.8,286047003.1,N
1504718035.7,286047001.6,N
1504718055.5,286047001.5,N
1504718075.3,286047000.4,N
1504718095.2,286046998.2,N
1504718115.9,286047000.4,N
1504718135.7,286047002.4,N
1504718155.5,286047005.6,N
1504718175.4,286047001.4,N
1504718195.2,286047005.7,N
1504718215.0,286047005.0,N
1504718215.9,286047005.0,N
1504718235.8,286047005.7,N
1504718255.6,286047001.8,N
1504718275.4,286047002.4,N
1504718295.3,286047000.3,N
1504718315.1,286047002.0,N
1504718335.8,286047006.0,P
1504718355.7,286047000.1,N
1504718375.5,286047002.5,N
1504718395.3,286047003.6,N
1504718415.2,286047002.2,N
1504718435.9,286047002.6,N
1504718455.7,286047002.6,N
1504718475.6,286046996.5,N
1504718495.4,286046996.6,N
1504718515.2,286047000.6,N
1504718535.1,286047003.4,N
1504718536.0,286047003.4,N
1504718555.8,286046999.8,N
1504718575.6,286047001.1,N
1504718595.4,286047000.7,N
1504718615.3,286046999.1,N
1504718635.1,286046998.5,N
1504718655.8,286046997.4,N
1504718675.7,286046995.8,N
1504718695.5,286046997.2,N
1504718715.3,286046999.5,N
1504718735.2,286046997.5,N
1504718755.9,286046995.3,N
1504718775.7,286046995.0,N
1504718795.6,286046997.0,N
1504718815.4,286046999.2,N
1504718835.2,286046996.8,N
1504718855.0,286046997.9,N
1504718855.9,286046997.9,N
1504718875.8,286046999.6,N
1504718895.6,286046999.1,N
1504718915.4,286046998.9,N
1504718935.3,286046998.9,N
1504718955.1,286046998.8,N
1504718975.8,286047003.6,N
1504718995.7,286047001.9,N
1504719015.5,286047001.4,N
1504719035.3,286047000.0,N
1504719055.2,286047000.9,N
1504719075.9,286047001.2,N
1504719095.7,286046999.3,N
1504719115.6,286047000.3,N
1504719135.4,286046996.9,N
1504719155.2,286046997.5,N
1504719175.0,286046998.9,N
1504719175.9,286046998.9,N
1504719195.8,286046995.0,N
1504719215.6,286046999.5,N
1504719235.4,286046997.0,N
1504719255.3,286046996.5,N
1504719275.1,286047000.7,N
1504719295.8,286047001.9,N
1504719315.7,286046996.8,N
1504719335.5,286047001.2,N
1504719355.3,286047000.8,N
1504719375.2,286046998.5,N
1504719395.9,286046998.3,N
1504719415.7,286047000.7,N
1504719435.6,286047001.0,N
1504719455.4,286047005.2,N
1504719475.2,286047007.4,P
1504719495.1,286047004.2,N
1504719496.0,286047004.2,N
1504719515.8,286047002.0,N
1504719535.6,286047002.6,N
1504719555.5,286047003.7,N
1504719575.3,286047007.1,P
1504719595.1,286047000.8,N
1504719615.9,286046999.9,N
1504719635.7,286047000.3,N
1504719655.5,286047001.8,N
1504719675.4,286047003.3,N
1504719695.2,286047000.7,N
1504719715.0,286046999.0,N
1504719715.9,286046999.0,N
1504719735.7,286046997.1,N
1504719755.6,286046993.3,N
1504719775.4,286046992.0,N
1504719795.2,286046995.2,N
1504719815.1,286046996.7,N
1504719816.0,286046996.7,N
1504719835.8,286046997.8,N
1504719855.6,286046995.3,N
1504719875.5,286046997.9,N
1504719895.3,286046995.6,N
1504719915.1,286046994.3,N
1504719935.9,286046995.9,N
1504719955.7,286046997.1,N
1504719975.5,286046996.4,N
1504719995.4,286046993.5,N
1504720015.2,286046996.2,N
1504720035.0,286046997.6,N
1504720035.9,286046997.6,N
1504720055.7,286046999.3,N
1504720075.6,286046999.0,N
1504720095.4,286047001.0,N
1504720115.2,286047001.6,N
1504720135.1,286046999.9,N
1504720136.0,286046999.9,N
1504720155.8,286047000.6,N
1504720175.6,286046999.7,N
1504720195.5,286047000.5,N
1504720215.3,286047000.5,N
1504720235.1,286047001.5,N
1504720255.9,286047000.2,N
1504720275.7,286046998.1,N
1504720295.5,286046999.1,N
1504720315.4,286047001.1,N
1504720335.2,286047001.9,N
1504720355.0,286046999.8,N
1504720355.9,286046999.8,N
1504720375.7,286047001.8,N
1504720395.6,286046999.9,N
1504720415.4,286047003.8,N
1504720435.2,286047004.8,N
1504720455.1,286047004.1,N
1504720456.0,286047004.1,N
1504720475.8,286047003.9,N
1504720495.6,286047002.2,N
1504720515.5,286047001.8,N
1504720535.3,286047001.9,N
1504720555.1,286047003.5,N
1504720575.9,286047003.8,N
1504720595.7,286047004.3,N
1504720615.5,286047002.9,N
1504720635.4,286047003.8,N
1504720655.2,286047003.8,N
1504720675.0,286047000.4,N
1504720675.9,286047000.4,N
1504720695.8,286047002.3,N
1504720715.6,286047005.7,P
1504720735.4,286047000.2,N
1504720755.3,286046998.9,N
1504720775.1,286047000.5,N
1504720776.0,286047000.5,N
1504720795.8,286046998.3,N
